Regional Weather Roundup
Issued by NWS

Home | Current Version | Previous Version | Text Only | Print | Product List | Glossary On
Versions: 1 2 3 4 5 6 7 8 9 10 11 12 13 14 15 16 17 18 19 20 21 22 23 24 25 26 27 28 29 30 31 32 33 34 35 36 37 38 39 40 41 42 43 44 45 46 47 48 49 50
000
ASUS44 KJAN 011610
RWRMS

MISSISSIPPI HOURLY WEATHER ROUNDUP
NATIONAL WEATHER SERVICE JACKSON MS
1100 AM CDT WED OCT 01 2014

NOTE: "FAIR: INDICATES FEW OR NO CLOUDS BELOW 12,000 FEET WITH NO
SIGNIFICANT WEATHER AND/OR OBSTRUCTIONS TO VISIBILITY.

MSZ001>002-007>008-010>013-018>021-025>028-034>036-011700-
NORTHWEST MISSISSIPPI

CITY           SKY/WX    TMP DP  RH WIND       PRES   REMARKS
CLARKSDALE     FAIR      82  72  69 S8        29.94S
CLEVELAND      FAIR      85  71  62 S13       29.93S HX  90
GREENWOOD      SUNNY     83  68  60 S7        29.95S
GREENVILLE     SUNNY     85  71  63 S13       29.93R HX  90
GRENADA        FAIR      81  68  65 S7        29.96S
OLIVE BRANCH   MOSUNNY   81  68  65 S9        29.96R
OXFORD         FAIR      79  64  61 S7        29.98S
TUNICA         SUNNY     84  66  54 S10G17    29.94S
$$

MSZ003>006-009-014>017-022>024-029>033-037>039-011700-
NORTHEAST MISSISSIPPI

CITY           SKY/WX    TMP DP  RH WIND       PRES   REMARKS
COLUMBUS AFB   SUNNY     81  65  58 VRB2      29.98S
CORINTH        FAIR      84  59  42 S9        29.97S
GOLDN TRIANGLE MOSUNNY   81  66  61 CALM      29.98R
STARKVILLE     FAIR      81  64  57 CALM      29.98S
TUPELO         SUNNY     82  62  50 S7        29.97F
$$

MSZ040-058-011700-
CENTRAL MISSISSIPPI

CITY           SKY/WX    TMP DP  RH WIND       PRES   REMARKS
JACKSON INTL   PTSUNNY   81  69  67 S9        29.97S
JACKSON HAWKNS PTSUNNY   81  69  67 S8        29.97R
MERIDIAN KEY   SUNNY     80  67  64 VRB3      29.98S
MERIDIAN NAS   MOSUNNY   82  65  56 SE7       29.99R
RAYMOND        FAIR      81  75  83 S12       29.96S
VICKSBURG      SUNNY     83  68  60 S10       29.95R
$$

MSZ059>079-011700-
SOUTH MISSISSIPPI

CITY           SKY/WX    TMP DP  RH WIND       PRES   REMARKS
BROOKHAVEN     FAIR      82  70  65 SE7       29.98S
COLUMBIA       FAIR      81  70  69 S8        29.96S
HATTIESBURG      N/A     80  70  71 CALM      29.99R
MCCOMB         MOSUNNY   80  70  71 SE9       29.97S
NATCHEZ        PTSUNNY   81  73  78 SE9G16    29.96R
PINE BELT      SUNNY     81  68  65 S8        30.00R
$$

MSZ080>082-011700-
COASTAL MISSISSIPPI

CITY           SKY/WX    TMP DP  RH WIND       PRES   REMARKS
BAY ST LOUIS   PTSUNNY   82  70  65 SE9       29.97R
BILOXI         MOSUNNY   83  72  67 S7        29.97S
PASCAGOULA     PTSUNNY   82  70  66 SW5       29.97R
GULFPORT       MOSUNNY   82  71  69 SE8       29.96R
$$


USA.gov is the U.S. government's official web portal to all federal, state and local government web resources and services.